{"data":{"norad_id":43920,"intl_designator":"2019-001A","name":"ZHONGXING-2D","alt_names":[],"object_type":"PAYLOAD","status":"ACTIVE","operator":null,"country":"PRC","launch_date":"2019-01-10","launch_site_code":"XICLF","launch_vehicle":null,"mission":null,"orbit_class":"UNKNOWN","rcs_meters":null,"size_class":null,"mass_kg":null,"dimensions":null,"purposes":["comms"],"wikipedia_slug":null,"has_3d_model":false,"image_url":null,"decayed_at":null,"tle_current":{"epoch":"2026-05-25T04:21:36.217152Z","epoch_age_seconds":55423,"freshness":"FRESH","line1":"1 43920U 19001A   26145.18166918 -.00000339  00000+0  00000+0 0  9991","line2":"2 43920   0.0135 307.9510 0000993  36.2769  93.9249  1.00268951 53846","mean_motion":1.00268951,"eccentricity":9.93e-5,"inclination_deg":0.0135,"raan_deg":307.951,"arg_perigee_deg":36.2769,"mean_anomaly_deg":93.9249,"bstar":0,"rev_number":5384,"period_min":1436.1374938489,"perigee_km":35783.202416204,"apogee_km":35791.576489757,"semimajor_km":42165.52645298,"source":"CELESTRAK","updated_at":"2026-05-25T13:38:14.060834Z"}}}